Location: La Chapelle
(48.3135°N, 1.3085°W)
Time: 04:01:56
(UTC+00:00)

CSL-04 Debris - Pass Details

Date: 03 March 2021
Orbit: 826 x 848 km, 98.9° (Epoch: 17 April)

Event Time Altitude Azimuth Distance (km) Brightness Sun altitude
Rises 18:24:08 0° 144° (SE) 3,375 7.0 -6.0°
Reaches altitude 10° 18:26:33 10° 138° (SE) 2,448 6.2 -6.4°
Maximum altitude 18:31:43 47° 67° (ENE) 1,114 4.5 -7.3°
Drops below altitude 10° 18:36:56 10° 355° (N) 2,477 6.7 -8.2°
Sets 18:39:23 0° 350° (N) 3,419 7.5 -8.6°
